Location: Chisholm
(54.9102°N, 114.1701°W)
Time: 03:59:52
(UTC+00:00)

ISS - Pass Details

Date: 30 November 2021
Orbit: 413 x 422 km, 51.6° (Epoch: 23 January)

Event Time Altitude Azimuth Distance (km) Brightness Sun altitude
Rises 02:54:15 0° 275° (W) 2,383 1.3 -30.3°
Reaches altitude 10° 02:56:32 10° 263° (W) 1,514 -0.1 -30.6°
Enters shadow 02:57:03 13° 258° (WSW) 1,330 -0.5 -30.7°
